Location: Ahausen
(50.4985°N, 8.2722°E)
Time: 03:22:15
(UTC+00:00)

USA 234 - Pass Details

Date: 18 September 2020
Orbit: 1102 x 1106 km, 123.0° (Epoch: 16 October)

Event Time Altitude Azimuth Distance (km) Brightness Sun altitude
Rises 18:33:19 0° 60° (ENE) 3,928 5.7 -10.3°
Reaches altitude 10° 18:36:17 10° 72° (ENE) 2,967 5.0 -10.7°
Maximum altitude 18:41:40 27° 128° (SE) 1,986 4.1 -11.5°
Drops below altitude 10° 18:47:02 10° 183° (S) 2,956 5.4 -12.4°
Sets 18:49:57 0° 196° (SSW) 3,911 6.1 -12.8°
